Regional Weather Roundup
Issued by NWS

Home | Current Version | Previous Version | Text Only | Print | Product List | Glossary Off
Versions: 1 2 3 4 5 6 7 8 9 10 11 12 13 14 15 16 17 18 19 20 21 22 23 24 25 26 27 28 29 30 31 32 33 34 35 36 37 38 39 40 41 42 43 44 45 46 47 48 49 50

000
ASUS43 KMPX 301810
RWRMN
WEATHER ROUNDUP FOR MINNESOTA
NATIONAL WEATHER SERVICE TWIN CITIES/CHANHASSEN MN
100 PM CDT TUE SEP 30 2014


NOTE: "FAIR" INDICATES FEW OR NO CLOUDS BELOW 12,000 FEET WITH NO
SIGNIFICANT WEATHER AND/OR OBSTRUCTIONS TO VISIBILITY. N/A MEANS
CURRENT SKY AND/OR WEATHER CONDITIONS ARE NOT AVAILABLE.

MNZ060>063-068>070-301900-
   Twin Cities Metro

CITY           SKY/WX    TMP DP  RH WIND       PRES   REMARKS
TWIN CITIES    PTSUNNY   53  41  63 E13       30.01F
6HR MIN TEMP:  42; 6HR MAX TEMP:  53;

ST PAUL        MOSUNNY   53  42  66 SE10      30.03F
CRYSTAL        MOSUNNY   55  41  59 E12       30.00F
LAKEVILLE      PTSUNNY   52  43  71 SE7       30.00F
EDEN PRAIRIE   PTSUNNY   53  43  68 SE13      29.99F
6HR MIN TEMP:  42; 6HR MAX TEMP:  53;

SOUTH ST PAUL  MOSUNNY   54  42  64 E7        30.02F
LAKE ELMO      FAIR      52  43  71 E8        30.04S
$$
MNZ001>005-007-008-013>017-022>024-027-028-301900-
   Northwest Minnesota

CITY           SKY/WX    TMP DP  RH WIND       PRES   REMARKS
BEMIDJI        MOSUNNY   50  41  70 SE18G24   29.96S
HALLOCK        SUNNY     57  45  62 SE14      29.85F
ROSEAU         SUNNY     55  45  67 SE12G18   29.92F
WARROAD        SUNNY     52  45  76 E15       29.94F
THIEF RVR FALL SUNNY     55  43  62 SE17G24   29.87F
CROOKSTON      MOSUNNY   61  45  55 SE17G23   29.87S
FOSSTON        SUNNY     57  43  58 SE10G17   29.88F
DETROIT LAKES  MOSUNNY   52  41  66 SE21G28   29.88F
PARK RAPIDS    MOSUNNY   50  41  71 E17G25    29.93F
MAHNOMEN       CLOUDY    54  42  62 SE16      29.87S
$$
MNZ006-009>011-018-025>026-301900-
   North Central Minnesota

CITY           SKY/WX    TMP DP  RH WIND       PRES   REMARKS
BAUDETTE       SUNNY     53  42  66 SE12G20   29.97F
FLAG ISLAND    CLOUDY    48  43  81 SE9G18    29.95F
INTL FALLS     PTSUNNY   50  42  74 SE10      30.03F
6HR MIN TEMP:  41; 6HR MAX TEMP:  51;

WASKISH        SUNNY     55  45  67 E14G21    29.96F
BIG FORK       SUNNY     52  43  71 SE10G18   30.01F
LONGVILLE      MOSUNNY   52  43  71 SE9G16    29.98F
GRAND RAPIDS   MOSUNNY   50  39  66 SE9G16    30.01F
CRANE LAKE     SUNNY     50  39  66 SE6       30.08F
ORR            PTSUNNY   46  37  71 SE9G16    30.03F
COOK           PTSUNNY   48  41  76 SE10G16   30.05F
WALKER         CLOUDY    48  41  76 E9        29.97F
$$
MNZ012-019>021-037-301900-
   Northeast Minnesota

CITY           SKY/WX    TMP DP  RH WIND       PRES   REMARKS
DULUTH         CLOUDY    46  39  76 E17       30.07F
6HR MIN TEMP:  42; 6HR MAX TEMP:  47;

ELY            MOSUNNY   50  39  66 SE10      30.08F
HIBBING        CLOUDY    51  41  68 E12       30.04F
EVELETH        PTSUNNY   52  43  71 E10       30.06F
DULUTH HARBOR  CLOUDY    48  45  87 E14       30.10S
TWO HARBORS    CLOUDY    45  37  76 E15G22    30.08F
SILVER BAY     SUNNY     45  43  93 NE10      30.10F
GRAND MARAIS     N/A     50  39  66 E9        30.15S
G MARAIS ARPRT SUNNY     48  34  57 E10G17    30.12S
$$
MNZ029>031-032-039>041-046>048-054>057-064-301900-
   West Central Minnesota

CITY           SKY/WX    TMP DP  RH WIND       PRES   REMARKS
FERGUS FALLS   CLOUDY    54  39  58 SE18G25   29.86F
WHEATON        CLOUDY    52  45  76 SE22G28   29.85F
MORRIS         CLOUDY    52  45  76 SE15G25   29.86S
ALEXANDRIA     CLOUDY    51  43  74 E18G25    29.91F
ELBOW LAKE     FAIR      52  44  73 E21G26    29.85F
WADENA         MOSUNNY   54  43  66 SE18      29.92F
GLENWOOD       CLOUDY    52  43  71 E20G26    29.90F
APPLETON       CLOUDY    52  45  76 SE17G24   29.87F
BENSON         CLOUDY    54  45  71 SE14G25   29.89S
ORTONVILLE     CLOUDY    48  43  81 SE15G22   29.83F
MADISON        PTSUNNY   54  46  76 SE18      29.86F
WILLMAR        PTSUNNY   52  43  71 E18G24    29.91F
$$
MNZ033>034-036-042>043-049>051-058-059-301900-
   Central Minnesota

CITY           SKY/WX    TMP DP  RH WIND       PRES   REMARKS
ST CLOUD       PTSUNNY   53  41  63 E13       29.98F
6HR MIN TEMP:  43; 6HR MAX TEMP:  55;

SAUK CENTRE    CLOUDY    50  42  74 E15       29.94F
PAYNESVILLE    CLOUDY    47  42  80 NE13G21   29.95F
AITKIN         MOSUNNY   54  43  66 E8        30.00F
PINE RIVER     MOSUNNY   50  43  76 SE14      30.01F
BRAINERD       PTSUNNY   48  42  80 SE8       30.00F
STAPLES        MOSUNNY   52  39  62 E13       29.94F
LONG PRAIRIE   PTSUNNY   50  43  76 E14G20    29.95F
LITTLE FALLS   MOSUNNY   50  39  66 E12G20    29.97F
LITCHFIELD     CLOUDY    52  45  76 E17       29.96F
BUFFALO        CLOUDY    52  41  66 E12G17    29.99F
MAPLE LAKE     PTSUNNY   52  45  76 E12G17    29.99F
$$
MNZ037-044-045-052-053-301900-
   East Central Minnesota

CITY           SKY/WX    TMP DP  RH WIND       PRES   REMARKS
PRINCETON      MOSUNNY   52  43  71 E8        30.01F
MORA           CLOUDY    45  39  81 E7        30.05S
CAMBRIDGE      MOSUNNY   52  39  62 E5        30.01S
RUSH CITY      LGT RAIN  51  42  70 SE3       30.04F
MOOSE LAKE     PTSUNNY   50  41  71 SE6       30.02F
HINCKLEY       CLOUDY    46  41  81 E12       30.05F
CLOQUET        CLOUDY    46  39  76 E16       30.05F
MCGREGOR       MOSUNNY   48  43  81 SE10      30.03F
$$
MNZ071>073-080-081-089-090-097-098-301900-
   Southwest Minnesota

CITY           SKY/WX    TMP DP  RH WIND       PRES   REMARKS
MONTEVIDEO     CLOUDY    48  45  87 S20G25    29.90S
GRANITE FALLS  CLOUDY    50  45  83 E16       29.91S
CANBY          CLOUDY    50  47  90 SE13G24   29.86F
MARSHALL       CLOUDY    54  45  71 SE17      29.86F
REDWOOD FALLS  CLOUDY    53  45  74 SE14G26   29.91F
OLIVIA         CLOUDY    52  45  76 E16       29.91F
PIPESTONE      LGT RAIN  59  55  88 SE15G24   29.83S
WINDOM         CLOUDY    57  50  77 SE17G23   29.90F
WORTHINGTON    CLOUDY    61  52  72 SE18      29.89S
JACKSON        CLOUDY    55  50  82 SE17      29.91F
TRACY          CLOUDY    57  51  80 SE14      29.88F
SLAYTON        CLOUDY    54  52  92 SE15G21   29.89S
$$
MNZ065>067-074>077-082>085-091>093-301900-
   South Central Minnesota

CITY           SKY/WX    TMP DP  RH WIND       PRES   REMARKS
MANKATO        CLOUDY    52  43  71 SE14      29.97F
NEW ULM        CLOUDY    52  46  82 SE16      29.93F
ST JAMES       CLOUDY    57  48  72 E14       29.94F
FAIRMONT       CLOUDY    55  48  76 SE13G20   29.93F
GLENCOE        CLOUDY    53  41  65 E13       29.97F
FARIBAULT      CLOUDY    52  45  76 E7        30.00F
OWATONNA       CLOUDY    54  45  71 SE8       30.00F
WASECA         CLOUDY    50  41  71 E16       29.99F
ALBERT LEA     CLOUDY    54  48  82 SE14      29.98F
$$
MNZ078>079-086>088-094>096-301900-
   Southeast Minnesota

CITY           SKY/WX    TMP DP  RH WIND       PRES   REMARKS
ROCHESTER      PTSUNNY   52  45  77 SE10G22   30.02F
6HR MIN TEMP:  41; 6HR MAX TEMP:  52;

RED WING       MOSUNNY   54  43  66 SE10      30.02F
STANTON        PTSUNNY   54  43  67 E7        30.00F
DODGE CENTER   CLOUDY    54  45  71 SE13      30.01S
WINONA         CLOUDY    50  43  76 SE10      30.06F
AUSTIN         CLOUDY    52  46  82 SE10      29.99F
PRESTON        PTSUNNY   50  44  78 E8        30.03F
$$
ABBREVIATIONS USED IN REMARKS
   TC - TEMPERATURES IN CELSIUS
  WCI - WIND CHILL INDEX
   HX - HEAT INDEX
  VSB - VISIBILITY
$$



USA.gov is the U.S. government's official web portal to all federal, state and local government web resources and services.